Location: Newark
(42.8481°N, 0.4872°E)
Time: 18:02:23
(UTC+00:00)

Vanguard 3 - Pass Details

Date: 27 October 2020
Orbit: 508 x 3262 km, 33.3° (Epoch: 24 November)

Event Time Altitude Azimuth Distance (km) Brightness Sun altitude
Rises 05:55:47 0° 236° (SW) 6,451 11.3 -6.3°
Reaches altitude 10° 05:59:49 10° 232° (SW) 5,694 11.1 -5.5°
Maximum altitude 06:17:44 55° 161° (SSE) 3,704 10.8 -2.4°
Drops below altitude 10° 06:35:24 10° 91° (E) 5,640 13.1 0.7°
Sets 06:39:20 0° 88° (E) 6,391 13.3 1.4°
